Regional Weather Roundup
Issued by NWS Newport/Morehead, NC

Current Version | Previous Version | Text Only | Print | Product List | Glossary On
Versions: 1 2 3 4 5 6 7 8 9 10 11 12 13 14 15 16 17 18 19 20 21 22 23 24 25 26 27 28 29 30 31 32 33 34 35 36 37 38 39 40 41 42 43 44 45 46 47 48 49 50
000
ASUS42 KMHX 150313
RWRMHX
WEATHER ROUNDUP FOR EASTERN NORTH CAROLINA
NATIONAL WEATHER SERVICE NEWPORT/MOREHEAD CITY NC
1000 PM EST THU DEC 14 2017

NOTE: "FAIR" INDICATES FEW OR NO CLOUDS BELOW 12,000 FEET
WITH NO SIGNIFICANT WEATHER AND/OR OBSTRUCTIONS TO VISIBILITY

NCZ015>017-031-032-045>047-102-103-150400-
NORTH COAST

CITY           SKY/WX    TMP DP  RH WIND       PRES   REMARKS
EDENTON        CLEAR     40  32  73 NE5       30.05R
ELIZABETH CITY PTCLDY    42  35  76 N12       30.06R
KITTY HAWK     CLEAR     46  33  61 NE5       30.02S
MANTEO         CLEAR     44  35  70 NE8       30.04R

$$

NCZ045>047-081-094-103-104-150400-
CENTRAL COAST

CITY           SKY/WX    TMP DP  RH WIND       PRES   REMARKS
FRISCO         CLEAR     43  40  89 N5        30.01R

$$

NCZ095-097-098-100-101-150400-
SOUTHERN COAST

CITY           SKY/WX    TMP DP  RH WIND       PRES   REMARKS
BEAUFORT       CLEAR     39  37  92 CALM      30.01R
CEDAR ISLAND   NOT AVBL
JACKSONVILLE   CLEAR     36  34  92 CALM      30.00R
PINEY ISLAND     N/A    N/A N/A N/A NE8       30.02R
WILMINGTON     CLOUDY    39  37  92 CALM      29.99F


$$

NCZ011>013-027>030-043-044-078>080-089-090>093-098-150400-
COASTAL PLAIN

CITY           SKY/WX    TMP DP  RH WIND       PRES   REMARKS
AHOSKIE        CLEAR     38  29  68 NE5       30.06R
CLINTON        CLEAR     37  33  89 CALM      30.00S
ELIZABETHTOWN  NOT AVBL
GOLDSBORO      CLEAR     35  28  77 CALM      29.99R
GREENVILLE     CLEAR     39  32  75 E5        30.04R
HAVELOCK       CLEAR     36 N/A N/A CALM      30.02R
KENANSVILLE    CLEAR     32  30  93 CALM      30.00S
KINSTON        CLEAR     34  28  80 NE9       30.02R
NEW BERN       CLEAR     39  35  86 E8        30.03R
RICHLANDS      CLEAR     34  32  92 CALM      30.00S
ROCKY MOUNT    CLEAR     41  31  67 NE8       30.03R
WASHINGTON     CLEAR     39  32  77 NE6       30.03R
WHITEVILLE     CLOUDY    39  35  86 CALM      29.98S

$$

AMZ130-135-150-152-154-156-158-170-250-252-270-ANZ085-086-088-633-658-670-150400-
MARINE OBSERVATIONS

STATION/POSITION TIME  TEMP    WIND        PRES    WAVE   SWELL
                       AIR SEA DIR/SP/G            HT/PER HT/PER
                 (UTC) (F)     (DEG/KT/KT) (MB)    (FT/S) (FT/S)
CHESAPEAKE LIGHT NOT AVBL
64 E VA BEACH    0250   47 60   40/ 12/ 16 1018.2    5/ 6   3/ 6
DUCK             0248   47 53   30/ 16/ 18 1016.9
2 E DUCK         0300      55                N/A     4/ 6
OREGON INLET     0236   48 42   30/  9/ 11 1016.7
13E OREGON INLT  0248      62                N/A     4/ 5   3/ 5
HATTERAS CG      0248   48 52   30/  5/  6 1015.8
DIAMOND BUOY     0300   57 74  360/  6/ 10 1016.1
CAPE LOOKOUT     0300           20/  8/  8 1016.0
BEAUFORT LAB     0248   44 51   10/  3/  4 1015.9
30 SE NEW RVR IN 0208   58 64  270/  8/ 10 1015.7
30 SE NEW RVR IN 0300      64                N/A     4/ 8
27 SE WRIGHTSVLE 0208   58 65  280/ 10/ 16 1015.7
5 SE WRIGHTSVLE  0208   54 56  280/  8/ 10 1015.2
225 S CAPE HAT   0250   71 74  260/ 19/ 23 1015.7    8/ 8   3/15
41 SE CHARLESTON 0300      71  250/ 16/ 19 1015.5

$$




USA.gov is the U.S. government's official web portal to all federal, state and local government web resources and services.